CAPE
0 0 0 0 0 0 0 0 0 0 0 0 0 0 0 0 0 0 0 0 0 0 0 0 0 0 0 0 0 0 0 0 0 0 1 1 0 0 0 1 0 1 1 0
0 0 0 0 0 0 0 0 0 0 0 0 0 0 0 0 0 0 0 0 0 0 0 0 0 0 0 0 0 0 0 0 0 1 1 3 2 0 0 0 0 1 0 2
0 0 0 0 0 0 0 0 0 0 0 0 0 0 0 0 0 0 0 0 0 0 0 0 0 0 0 0 0 0 0 0 0 0 2 3 1 0 0 1 0 0 0 1
0 0 0 0 0 0 0 0 0 0 0 0 0 0 0 0 0 0 0 0 0 0 0 0 0 0 0 0 0 0 0 0 0 1 3 2 3 1 1 24 21 1 0 4
0 0 0 0 0 0 0 0 0 0 0 0 0 0 0 0 0 0 0 0 0 0 0 0 0 0 0 0 0 0 0 0 0 1 2 2 1 1 2 0 3 0 0 0
0 0 0 0 0 0 0 0 0 0 0 0 0 0 0 0 0 0 0 0 0 0 0 0 0 0 0 0 0 0 0 0 0 1 1 2 0 0 0 0 0 1 9 12
0 0 0 0 0 0 0 0 0 0 0 0 0 0 0 0 0 0 0 0 0 0 0 0 0 0 0 0 0 0 0 0 0 0 1 2 1 1 0 0 0 0 1 0
0 0 0 0 0 0 0 0 0 0 0 0 0 0 0 0 0 0 0 0 0 0 0 0 0 0 0 0 0 0 0 0 0 0 1 0 0 1 1 1 1 0 0 0
0 0 0 0 0 0 0 0 0 0 0 0 0 0 0 0 0 0 0 0 0 0 0 0 0 0 0 0 0 0 0 0 0 0 0 0 0 1 1 0 0 1 1 1
0 0 0 0 0 0 0 0 0 0 0 0 0 0 0 0 0 0 0 0 0 0 0 0 0 0 0 0 0 0 0 0 0 0 0 0 0 0 0 0 0 0 1 1
0 0 0 0 0 0 0 0 0 0 0 0 0 0 0 0 0 0 0 0 0 0 0 0 0 0 0 0 0 0 0 0 0 0 0 0 0 0 0 0 0 0 0 0
0 0 0 0 0 0 0 0 0 0 0 0 0 0 0 0 0 0 0 0 0 0 0 0 0 0 0 0 0 0 0 0 0 0 0 0 0 0 0 0 0 0 0 0
0 0 0 0 0 0 0 0 0 0 0 0 0 0 0 0 0 0 0 0 0 0 0 0 0 0 0 0 0 0 0 0 0 0 0 0 0 0 0 0 0 0 0 0
0 0 0 0 0 0 0 0 0 0 0 0 0 0 0 0 0 0 0 0 0 0 0 0 0 0 0 0 0 0 0 0 0 0 0 0 0 0 0 0 0 0 0 0
0 0 0 0 0 0 0 0 0 0 0 0 0 0 0 0 0 0 0 0 0 0 0 0 0 0 0 0 0 0 0 0 0 0 0 0 0 0 0 0 0 0 0 0
0 0 0 0 0 0 0 0 0 0 0 0 0 0 0 0 0 0 0 0 0 0 0 0 0 0 0 0 0 0 0 0 0 0 0 0 0 0 0 0 0 0 0 0
0 0 0 0 0 0 0 0 0 0 0 0 0 0 0 0 0 0 0 0 0 0 0 0 0 0 0 0 0 0 0 0 0 0 0 0 0 0 0 0 0 0 0 0
0 0 0 0 0 0 0 0 0 0 0 0 0 0 0 0 0 0 0 0 0 0 0 0 0 0 0 0 0 0 0 0 0 0 0 0 0 0 0 0 0 0 0 0
1 2 0 0 0 0 0 0 0 0 0 0 0 0 0 0 0 0 0 0 0 0 0 0 0 0 0 0 0 0 0 0 0 0 0 0 0 0 0 0 0 0 0 0
1 1 1 0 0 0 0 0 0 0 0 0 0 0 0 0 0 0 0 0 0 0 0 0 0 0 0 0 0 0 0 0 0 0 0 0 0 0 0 0 0 0 0 0
2 1 0 0 0 0 0 0 0 0 0 0 0 0 0 0 0 0 0 0 0 0 0 0 0 0 0 0 0 0 0 0 0 0 0 0 0 0 0 0 0 0 0 0
0 0 0 0 0 0 0 0 0 0 0 0 0 0 0 0 0 0 0 0 0 0 0 0 0 0 0 0 0 0 0 0 0 0 0 0 0 0 0 0 0 0 0 0
0 0 0 0 0 0 0 0 0 0 0 0 0 0 0 0 0 0 0 0 0 0 0 0 0 0 0 0 0 0 0 0 0 0 0 0 0 0 0 0 0 0 0 0
0 0 0 0 0 0 1 0 0 0 0 0 0 0 0 0 0 0 0 0 0 0 0 0 0 0 0 0 0 0 0 0 0 0 0 0 0 0 0 0 0 0 0 0
0 0 0 0 0 0 0 0 1 0 0 0 0 0 0 0 0 0 0 0 0 0 0 0 0 0 0 0 0 0 0 0 0 0 0 0 0 0 0 0 0 0 0 0
0 0 0 0 0 0 0 0 0 0 0 1 1 0 0 0 0 0 0 0 0 0 0 0 0 0 0 0 0 0 0 0 0 0 0 0 0 0 0 0 0 0 0 0
CIN
0 0 0 0 0 0 0 0 0 0 0 0 0 0 0 0 0 0 0 0 0 0 0 0 0 0 0 0 0 0 0 0 0 0 0 0 0 0 0 0 0 0 0 -9
0 0 0 0 0 0 0 0 0 0 0 0 0 0 0 0 0 0 0 0 0 0 0 0 0 0 0 0 0 0 0 0 0 0 0 0 0 0 0 0 0 -9 0 -13
0 0 0 0 0 0 0 0 0 0 0 0 0 0 0 0 0 0 0 0 0 0 0 0 0 0 0 0 0 0 0 0 0 0 0 0 0 0 0 0 0 -13 0 -12
0 0 0 0 0 0 0 0 0 0 0 0 0 0 0 0 0 0 0 0 0 0 0 0 0 0 0 0 0 0 0 0 0 0 0 0 0 0 0 0 -5 -17 -14 -5
0 0 0 0 0 0 0 0 0 0 0 0 0 0 0 0 0 0 0 0 0 0 0 0 0 0 0 0 0 0 0 0 0 0 0 0 0 0 0 0 0 0 0 0
0 0 0 0 0 0 0 0 0 0 0 0 0 0 0 0 0 0 0 0 0 0 0 0 0 0 0 0 0 0 0 0 0 0 0 0 0 0 0 0 0 -4 -11 -21
0 0 0 0 0 0 0 0 0 0 0 0 0 0 0 0 0 0 0 0 0 0 0 0 0 0 0 0 0 0 0 0 0 0 0 0 0 0 0 0 0 0 -6 -4
0 0 0 0 0 0 0 0 0 0 0 0 0 0 0 0 0 0 0 0 0 0 0 0 0 0 0 0 0 0 0 0 0 0 0 0 0 0 0 0 0 0 0 0
0 0 0 0 0 0 0 0 0 0 0 0 0 0 0 0 0 0 0 0 0 0 0 0 0 0 0 0 0 0 0 0 0 0 0 0 0 0 0 0 0 0 0 0
0 0 0 0 0 0 0 0 0 0 0 0 0 0 0 0 0 0 0 0 0 0 0 0 0 0 0 0 0 0 0 0 0 0 0 0 0 0 0 0 0 0 0 0
0 0 0 0 0 0 0 0 0 0 0 0 0 0 0 0 0 0 0 0 0 0 0 0 0 0 0 0 0 0 0 0 0 0 0 0 0 0 0 0 0 0 0 0
0 0 0 0 0 0 0 0 0 0 0 0 0 0 0 0 0 0 0 0 0 0 0 0 0 0 0 0 0 0 0 0 0 0 0 0 0 0 0 0 0 0 0 0
0 0 0 0 0 0 0 0 0 0 0 0 0 0 0 0 0 0 0 0 0 0 0 0 0 0 0 0 0 0 0 0 0 0 0 0 0 0 0 0 0 0 0 0
0 0 0 0 0 0 0 0 0 0 0 0 0 0 0 0 0 0 0 0 0 0 0 0 0 0 0 0 0 0 0 0 0 0 0 0 0 0 0 0 0 0 0 0
0 0 0 0 0 0 0 0 0 0 0 0 0 0 0 0 0 0 0 0 0 0 0 0 0 0 0 0 0 0 0 0 0 0 0 0 0 0 0 0 0 0 0 0
0 0 0 0 0 0 0 0 0 0 0 0 0 0 0 0 0 0 0 0 0 0 0 0 0 0 0 0 0 0 0 0 0 0 0 0 0 0 0 0 0 0 0 0
0 0 0 0 0 0 0 0 0 0 0 0 0 0 0 0 0 0 0 0 0 0 0 0 0 0 0 0 0 0 0 0 0 0 0 0 0 0 0 0 0 0 0 0
0 0 0 0 0 0 0 0 0 0 0 0 0 0 0 0 0 0 0 0 0 0 0 0 0 0 0 0 0 0 0 0 0 0 0 0 0 0 0 0 0 0 0 0
0 0 0 0 0 0 0 0 0 0 0 0 0 0 0 0 0 0 0 0 0 0 0 0 0 0 0 0 0 0 0 0 0 0 0 0 0 0 0 0 0 0 0 0
0 0 0 0 0 0 0 0 0 0 0 0 0 0 0 0 0 0 0 0 0 0 0 0 0 0 0 0 0 0 0 0 0 0 0 0 0 0 0 0 0 0 0 0
0 0 0 0 0 0 0 0 0 0 0 0 0 0 0 0 0 0 0 0 0 0 0 0 0 0 0 0 0 0 0 0 0 0 0 0 0 0 0 0 0 0 0 0
0 0 0 0 0 0 0 0 0 0 0 0 0 0 0 0 0 0 0 0 0 0 0 0 0 0 0 0 0 0 0 0 0 0 0 0 0 0 0 0 0 0 0 0
0 0 0 0 0 0 0 0 0 0 0 0 0 0 0 0 0 0 0 0 0 0 0 0 0 0 0 0 0 0 0 0 0 0 0 0 0 0 0 0 0 0 0 0
0 0 0 0 0 0 0 0 0 0 0 0 0 0 0 0 0 0 0 0 0 0 0 0 0 0 0 0 0 0 0 0 0 0 0 0 0 0 0 0 0 0 0 0
0 0 0 0 0 0 0 0 0 0 0 0 0 0 0 0 0 0 0 0 0 0 0 0 0 0 0 0 0 0 0 0 0 0 0 0 0 0 0 0 0 0 0 0
0 0 0 0 0 0 0 0 0 0 0 0 0 0 0 0 0 0 0 0 0 0 0 0 0 0 0 0 0 0 0 0 0 0 0 0 0 0 0 0 0 0 0 0
Wind_Speed
18 21 22 20 17 20 22 25 28 25 25 30 27 32 31 32 23 22 18 14 11 8 1 7 10 14 19 22 28 30 31 30 29 30 28 26 25 25 23 19 16 12 16 20
21 26 22 18 18 20 23 27 30 28 22 29 37 37 34 32 8 2 6 8 11 8 2 5 9 14 19 23 27 30 29 29 29 28 25 23 22 23 17 16 14 13 18 21
24 23 17 18 20 22 24 25 28 30 32 27 36 34 24 21 19 12 7 6 5 8 7 5 8 13 18 23 27 30 27 28 29 28 24 24 23 23 21 16 15 17 20 22
27 23 21 23 25 21 30 23 25 28 30 31 28 33 30 26 24 13 10 9 9 9 8 7 8 13 17 22 26 29 26 27 27 27 25 26 26 26 23 19 20 20 22 23
25 23 23 26 26 20 26 21 23 26 28 32 27 25 24 23 20 15 10 10 10 9 9 8 9 13 17 21 25 28 27 27 26 26 25 25 27 24 23 23 26 26 27 27
27 24 24 25 22 20 15 21 24 26 28 30 23 19 24 18 16 13 9 8 9 9 9 9 11 14 16 20 24 27 27 26 26 26 25 25 26 24 26 25 21 24 29 29
31 29 24 20 21 21 21 23 31 31 27 27 21 21 16 18 15 13 8 6 6 7 8 9 10 12 16 19 23 26 26 26 25 25 25 24 24 26 26 24 23 24 29 32
31 37 26 23 26 25 20 22 24 31 28 27 21 21 19 15 16 12 13 8 5 5 7 8 9 11 15 18 21 24 25 24 24 24 24 24 23 25 26 26 24 24 22 23
29 33 24 22 22 21 23 26 20 26 27 31 25 24 26 20 17 14 11 9 4 4 5 7 9 11 14 17 19 22 24 24 23 22 22 22 23 25 25 26 26 27 14 16
26 31 25 22 21 22 22 15 22 23 29 30 27 26 20 17 16 10 10 7 6 3 4 6 8 9 12 15 16 19 22 23 22 22 21 21 22 23 24 25 26 26 26 6
22 26 25 21 25 22 21 23 21 20 22 25 28 23 16 17 17 13 7 8 6 3 3 5 6 8 11 13 15 17 19 21 22 22 22 21 21 22 23 24 25 25 25 24
23 23 30 26 23 23 24 23 20 24 25 25 25 26 17 16 19 17 11 10 7 5 3 3 5 7 9 11 13 14 16 18 20 20 21 22 22 22 23 24 23 24 26 26
23 28 31 31 29 25 26 25 23 23 23 24 25 24 17 17 18 20 18 14 7 4 2 2 4 4 5 8 10 11 13 14 17 19 20 20 21 21 22 23 24 24 23 21
21 27 31 35 28 21 26 25 23 23 28 26 25 26 21 18 20 20 19 16 10 5 4 5 6 4 4 5 6 8 9 11 12 15 17 19 21 22 23 24 25 26 26 23
27 34 32 32 29 27 28 26 22 25 25 27 29 24 26 37 36 31 18 16 12 8 10 7 6 5 3 3 2 4 6 8 9 10 13 16 18 21 23 25 26 27 28 29
31 35 32 37 34 33 37 34 29 28 29 34 37 48 33 38 28 27 21 17 19 20 14 10 9 8 7 6 5 3 3 4 6 8 9 13 16 19 23 25 27 28 29 30
32 35 35 42 34 36 49 43 35 32 29 26 30 26 27 26 23 20 18 22 24 25 15 10 10 10 10 9 9 9 7 3 4 6 6 7 10 13 17 20 21 23 24 25
32 34 34 37 31 47 40 31 30 31 33 29 35 37 29 30 28 23 23 27 32 34 24 13 11 9 10 10 11 10 7 7 5 6 5 5 4 5 8 11 14 15 16 19
32 32 37 41 42 43 40 35 31 31 40 33 32 38 32 27 28 33 29 20 21 24 23 23 16 9 7 9 13 13 11 9 9 8 7 6 5 3 2 3 4 6 10 10
35 35 39 35 43 48 37 33 29 26 48 31 28 33 30 24 33 27 16 18 19 20 21 23 19 11 8 8 11 14 15 14 15 12 11 8 7 6 6 4 3 1 1 1
38 38 44 43 43 42 34 26 21 36 38 30 28 30 24 24 23 15 18 19 20 21 22 22 19 13 8 8 10 15 16 18 17 15 13 12 11 10 8 7 6 5 5 4
38 40 42 41 43 48 26 23 30 29 29 28 27 21 15 15 15 18 21 22 24 25 25 23 21 17 13 8 10 13 18 17 16 16 17 16 14 14 13 12 10 9 9 9
34 29 36 36 39 27 26 25 27 29 28 27 23 19 13 15 19 21 23 25 26 25 25 25 24 21 16 11 9 12 15 16 17 18 19 19 17 17 17 17 16 16 15 13
30 27 33 35 34 36 27 30 33 36 35 27 21 20 21 26 28 27 26 27 26 25 25 23 23 22 21 16 13 14 14 14 17 20 20 20 20 20 19 19 20 21 20 19
41 39 36 40 34 31 29 34 37 38 35 36 32 30 30 30 29 28 29 29 28 27 26 25 24 24 23 22 21 18 14 12 14 18 20 21 21 22 22 22 22 24 25 24
36 37 38 40 36 35 39 41 37 36 37 39 39 35 31 30 30 30 29 29 29 30 30 29 28 28 28 26 25 23 17 13 14 16 19 21 22 23 23 24 24 24 25 29
Wind_Direction
288 286 286 294 300 304 307 308 307 321 327 320 325 261 259 259 239 237 231 224 213 202 31 9 7 7 6 7 4 7 9 13 16 17 18 20 19 15 17 21 23 24 315 266
283 280 289 298 301 303 304 303 304 314 330 321 304 271 265 273 258 183 198 202 205 191 139 24 13 9 9 8 7 9 15 18 20 21 22 27 24 25 29 40 57 100 196 224
276 286 295 292 296 298 302 304 306 307 314 324 305 294 312 318 331 4 47 54 92 151 144 72 27 15 13 10 11 13 21 23 24 26 30 34 36 39 48 57 87 123 164 193
277 282 286 289 290 297 295 307 308 309 314 310 322 298 304 308 314 348 7 35 57 94 103 60 40 21 19 16 16 17 25 27 30 33 40 43 43 48 60 72 93 122 148 171
277 282 283 284 289 294 297 307 308 308 310 307 310 310 310 315 320 341 21 41 54 76 89 65 44 25 22 21 18 21 28 31 36 40 48 51 53 64 72 87 98 115 132 150
277 286 286 288 293 293 302 305 308 310 305 302 310 313 306 318 328 336 13 43 54 67 71 55 41 30 27 24 20 23 28 36 41 46 52 59 63 76 84 93 109 117 125 144
273 276 283 286 287 292 292 297 295 295 299 300 308 307 308 312 323 335 358 40 57 67 68 59 48 36 29 24 22 24 32 37 45 50 55 65 72 77 87 103 110 128 129 126
266 271 268 274 278 284 281 287 288 289 294 301 309 302 312 317 311 317 332 351 35 61 72 58 53 36 31 26 25 26 33 39 47 54 60 69 79 82 86 90 115 130 147 157
268 270 276 277 279 279 280 278 290 289 295 294 298 301 298 300 309 316 317 328 359 55 72 55 48 35 30 26 27 27 30 39 50 57 66 75 82 81 86 87 84 105 180 181
268 271 276 276 278 278 278 282 282 284 287 288 294 297 298 312 314 302 317 314 329 7 51 41 41 35 29 26 28 27 31 39 51 58 70 81 89 89 83 92 92 97 104 61
262 268 275 274 268 266 270 272 281 286 284 289 294 299 310 308 313 318 306 313 315 335 10 27 29 27 25 24 25 27 30 39 47 60 68 82 94 94 91 93 101 108 104 102
255 269 266 269 279 274 271 270 268 277 281 283 287 289 309 310 314 318 311 304 306 309 340 36 35 24 27 22 22 26 30 37 46 59 69 79 94 97 99 101 96 109 116 117
246 262 264 270 274 274 269 266 268 276 285 278 280 291 305 309 309 311 310 305 296 297 335 23 2 10 23 16 20 26 28 34 41 51 64 73 86 99 102 105 111 104 98 91
248 260 261 261 273 271 267 264 257 263 273 277 275 286 291 303 307 311 309 305 299 279 285 312 318 316 345 356 16 24 27 32 37 44 58 67 75 88 100 103 105 109 105 89
257 262 260 265 271 270 272 270 257 251 258 273 285 280 286 284 287 292 300 306 310 301 294 274 272 268 282 307 21 20 27 32 41 47 55 65 75 83 91 96 97 100 104 101
259 263 264 264 265 269 269 269 266 261 265 272 278 263 290 287 294 289 291 292 296 298 290 270 253 257 240 210 187 149 120 58 58 65 59 68 76 84 90 93 96 96 101 103
258 258 260 262 266 267 267 261 262 266 266 266 270 280 287 291 298 304 300 297 299 300 294 273 249 231 217 206 189 176 162 133 112 99 81 70 74 83 93 97 98 100 104 106
256 255 259 263 262 260 268 274 267 260 267 261 275 279 282 284 289 295 298 299 294 288 299 286 274 249 219 207 193 183 178 176 167 148 130 112 89 81 87 95 101 101 104 110
251 253 260 259 259 269 269 269 266 267 273 268 272 276 278 283 288 288 293 297 303 303 305 304 299 276 251 214 198 188 185 189 192 188 179 165 152 143 124 114 106 97 110 110
251 254 255 260 259 259 270 273 273 276 273 277 273 277 279 280 276 283 291 300 308 311 310 308 314 303 258 239 207 197 194 191 194 204 202 203 190 185 179 181 180 248 215 171
250 254 252 255 260 265 270 279 274 270 280 288 284 277 270 273 280 280 286 295 303 309 312 313 315 314 286 255 221 212 212 207 204 207 210 224 223 218 214 210 225 234 243 244
251 252 254 255 258 260 270 268 270 284 292 294 290 283 274 276 277 285 289 293 298 300 305 310 314 313 307 276 243 228 217 218 221 217 212 212 223 238 237 230 233 232 233 243
254 262 260 256 257 277 269 279 290 296 294 293 285 275 264 278 285 289 291 294 298 302 304 304 305 308 307 293 265 250 246 237 229 222 220 222 223 226 241 241 243 247 245 236
272 279 271 269 265 274 276 285 291 290 283 289 286 279 277 282 285 286 290 293 298 303 307 309 307 306 304 300 289 278 270 251 235 224 224 228 230 231 229 238 247 249 246 247
270 277 271 273 273 277 276 291 293 289 286 280 280 279 280 281 282 284 288 291 293 298 303 306 305 303 302 300 295 291 280 260 246 240 239 237 237 238 240 235 236 244 252 249
266 267 268 265 280 278 279 289 294 290 291 283 278 276 278 279 282 282 285 290 292 294 296 298 300 300 298 297 295 293 287 270 258 252 248 241 241 246 246 247 250 249 255 259